Location: Houston
(29.7630°N, 95.3630°W)
Time: 10:06:08
(UTC-05:00)

Daily predictions for brighter satellites

Satellite Brightness Start Highest point End
(mag) Time Altitude Azimuth Time Altitude Azimuth Time Altitude Azimuth
RESURS DK-1 4.4 20:40:22 10° SW 20:44:09 34° WNW 20:47:57 10° N
Nadezhda 1 Rocket 4.3 20:39:22 10° N 20:45:40 78° W 20:52:00 10° S
Cosmos 1603 4.4 20:40:25 10° NNW 20:46:02 58° WSW 20:51:38 10° S
Spot 2 Rocket 4.4 20:41:55 10° S 20:46:52 53° W 20:51:51 10° NNW
FengYun 1-2 T 4.4 20:46:51 10° SSE 20:52:26 85° WSW 20:58:06 10° NNW
NOSS 2-2 (C) 3.9 20:50:22 10° S 20:54:04 35° ESE 20:57:56 10° NE
Cosmos 2221 Rocket 3.6 20:50:03 10° N 20:54:27 62° E 20:58:49 10° SSE
Cosmos 494 Rocket 4.0 20:50:51 10° NNW 20:56:08 83° ENE 21:01:21 10° SSE
Cosmos 1892 3.9 20:53:07 10° SE 20:56:09 23° E 20:59:12 10° NE
H-2A R/B 2.9 20:53:08 10° SSE 20:56:44 52° ENE 21:00:21 10° N
USA 186 1.9 20:55:21 10° SSE 20:58:07 47° ENE 21:01:07 10° N
Cosmos 1733 Rocket 4.3 20:56:53 10° SE 21:00:23 23° E 21:03:52 10° NE
Meteosat 1 Rocket2 4.3 20:56:03 10° WSW 21:01:40 62° SSE 21:10:28 10° E
Cosmos 2181 Rocket 4.2 20:55:21 10° N 21:01:42 59° E 21:07:56 10° SSE
CZ-4C R/B 4.0 21:00:54 10° NW 21:07:55 44° WSW 21:15:19 10° S
NOSS 8 (A) 4.5 21:04:54 10° SSW 21:08:34 62° ESE 21:12:03 10° NE
Cosmos 1709 Rocket 4.4 21:06:07 10° SSW 21:12:09 66° W 21:18:16 10° N
NOSS 2-2 (E) 3.3 21:09:10 10° SSW 21:13:12 72° ESE 21:17:34 10° NNE
Cosmos 2074 Rocket 4.1 21:12:52 10° SSE 21:18:58 56° E 21:25:05 10° NNE
SPOT 5 4.5 21:19:21 16° ESE 21:21:50 22° ENE 21:25:47 10° NNE
Myojo/LAPS 4.2 21:19:38 10° SW 21:23:08 22° S 21:23:45 20° SSE
GPS 2-14 Rocket1 4.3 21:20:28 10° SW 21:23:18 19° S 21:24:38 17° SSE
Cosmos 909 Rocket 4.2 21:18:28 10° SSW 21:24:45 89° ESE 21:31:58 10° NNE
ERS-1 Rocket 3.2 21:22:06 15° SE 21:26:04 52° ENE 21:30:57 10° N
H-2A R/B 3.1 21:24:05 20° ESE 21:26:07 29° ENE 21:29:50 10° NNE
Cosmos 1356 Rocket 3.4 21:22:32 10° S 21:26:40 68° E 21:30:53 10° NNE
COSMOS 2406 4.4 21:23:29 10° N 21:28:17 27° ENE 21:30:59 19° ESE
Resurs 01 Rocket 4.4 21:29:01 10° SW 21:31:20 14° W 21:33:40 10° WNW
ALOS 3.3 21:27:26 10° S 21:31:54 45° W 21:36:23 10° NNW
GPS 2-05 Rocket1 3.3 21:30:30 10° SW 21:33:59 41° SSE 21:35:07 31° ESE
Cosmos 2278 Rocket 3.1 21:43:31 26° ESE 21:43:58 26° ESE 21:48:35 10° NE
ATLAS 5 CENTAUR R/B 3.4 21:38:28 10° N 21:43:59 33° NE 21:46:55 23° E
Sich 1 Rocket 4.0 21:42:39 28° SE 21:44:35 44° E 21:48:57 10° NNE
Cosmos 1844 4.0 21:40:49 10° S 21:46:14 45° ESE 21:51:42 10° NNE
CZ-4 DEB 3.7 21:44:23 18° SSW 21:46:27 44° W 21:49:30 10° NNW
Abrixas rocket 3.5 21:46:09 10° NNW 21:49:12 30° NE 21:49:51 28° ENE
Cosmos 1825 3.8 21:54:31 21° ENE 21:54:31 21° ENE 21:56:27 10° NE
USA 234 3.3 21:47:52 10° NE 21:54:13 54° SE 22:00:32 10° SSW
CZ-4B R/B 4.1 21:50:27 10° NE 21:54:52 32° E 21:54:53 32° E
Cosmos 2056 Rocket 3.8 21:51:10 10° SSW 21:56:19 66° WNW 22:01:26 10° N
Cosmos 1844 Rocket 2.6 21:51:45 10° SSW 21:57:24 83° ESE 22:03:04 10° NNE
Cosmos 1939 Rocket 2.7 21:57:31 41° S 21:58:46 86° WSW 22:02:39 10° NNW
Cosmos 1674 Rocket 3.6 21:56:48 10° N 22:01:11 58° E 22:02:00 49° SE
UNK 4.4 21:57:35 10° NNE 22:03:43 61° ESE 22:07:06 26° S
Meteor 1-27 Rocket 4.1 22:00:34 10° N 22:05:47 41° E 22:06:41 38° ESE
Cosmos 1782 2.7 22:04:19 10° N 22:08:20 69° E 22:08:35 67° ESE
Atlas Centaur 2 0.9 22:08:20 10° W 22:11:54 81° N 22:12:00 79° NNE
Coronas F rocket 4.4 22:11:51 10° WSW 22:13:28 15° W 22:15:06 10° NW
YAOGAN 6 3.7 22:14:37 32° NNE 22:14:37 32° NNE 22:16:56 10° N
Cosmos 1408 3.8 22:15:26 31° NE 22:15:26 31° NE 22:17:36 10° NNE
Cosmos 962 Rocket 4.5 22:14:39 41° SSE 22:16:37 60° E 22:22:40 10° NNE
SL-27 R/B 3.4 22:13:36 10° N 22:16:21 41° NNE 22:16:21 41° NNE
MetOp-A 4.1 22:16:22 51° SE 22:17:35 67° ENE 22:22:53 10° N
Cosmos 2154 Rocket 3.9 22:17:46 27° S 22:21:24 89° E 22:27:38 10° N
CZ-4 R/B 4.5 22:18:09 10° NNE 22:21:34 39° ENE 22:21:34 39° ENE
COS B Rocket 3.3 22:20:32 10° N 22:24:24 76° NNW 22:24:24 76° NNW
CENTAUR R/B 3.1 22:19:07 10° NNW 22:27:14 85° WSW 22:30:41 40° SSE
Cosmos 1975 Rocket 4.5 22:24:56 10° NNE 22:27:24 26° NE 22:27:24 26° NE
Cosmos 1606 3.3 22:26:27 10° N 22:29:28 50° NNE 22:29:28 50° NNE
Cosmos 1908 Rocket 3.9 22:31:02 50° SW 22:31:51 60° W 22:36:12 10° N
FALCON 9 R/B 4.0 21:54:35 10° WNW 22:33:04 71° SW 22:37:43 41° SE
H-2A R/B 3.4 22:36:42 27° ENE 22:36:42 27° ENE 22:40:34 10° NNE
Envisat 3.9 22:34:10 30° SSW 22:36:05 42° W 22:40:54 10° NNW
Cosmos 1295 Rocket 4.4 22:42:45 65° SE 22:43:31 73° E 22:49:48 10° N
Cosmos 1420 Rocket 4.4 22:46:17 53° NE 22:46:17 53° NE 22:50:23 10° NNE
Cosmos 1378 Rocket 4.1 22:41:49 10° N 22:45:11 54° N 22:45:11 54° N
SPOT 1/Viking Rocket 3.5 22:51:06 84° NW 22:51:06 84° NW 22:56:10 10° NNW
Delta 168 4.2 22:43:22 10° WSW 22:52:40 62° S 22:52:54 62° S
Cosmos 2366 rocket 4.4 22:56:08 47° ENE 22:56:08 47° ENE 23:01:13 10° NNE
CZ-3C R/B 3.3 22:37:17 10° WSW 22:55:50 37° SSW 22:55:50 37° SSW
SPOT 5 4.2 22:58:36 33° WSW 22:59:34 35° W 23:04:23 10° NNW
H-2A R/B 4.3 23:01:13 17° WSW 23:02:04 18° W 23:04:59 10° NW
Cosmos 407 Rocket 3.9 22:57:09 10° NNW 23:02:05 60° W 23:02:05 60° W
COSMOS 2406 4.5 23:07:31 10° NW 23:12:31 32° WSW 23:13:05 31° WSW
Terra 3.3 23:16:52 31° NNE 23:16:52 31° NNE 23:19:29 10° N
Cosmos 2218 Rocket 4.0 23:17:25 80° NNW 23:17:25 80° NNW 23:23:28 10° N
Cosmos 1140 Rocket 4.5 23:14:15 10° N 23:17:37 40° N 23:17:37 40° N
ARGOS 3.8 23:20:05 49° WNW 23:20:05 49° WNW 23:24:42 10° NNW
BREEZE-M DEB (TANK) 4.4 23:21:27 10° NW 23:26:27 31° N 23:26:27 31° N
Cosmos 2278 Rocket 3.7 23:25:14 22° WSW 23:27:50 32° WNW 23:32:53 10° N
ATLAS 5 CENTAUR R/B 3.5 23:23:03 10° NW 23:28:29 36° WSW 23:28:29 36° WSW
Cosmos 1833 Rocket 4.3 23:35:58 10° N 23:39:00 25° NNE 23:39:00 25° NNE
Cosmos 2082 Rocket 3.6 23:48:09 10° N 23:51:28 34° N 23:51:28 34° N
